Flag for U.S.A. Weather past 2 weeks in Lincoln, Nebraska, U.S.A.

Now
64 °F

Fog.


Feels Like: 64 °F
Forecast: 65 / 88 °F
Wind: No wind

Location: Lincoln Municipal Airport

Current Time: Jun 30, 2015 at 4:09:31 AM

Latest Report: Jun 30, 2015 at 2:54 AM


Visibility: 6 mi

Pressure: 29.91 "Hg

Humidity: 90%

Dew point: 61 °F

Location of LincolnLocation

Historic Weather in Lincoln — Graph

°F

Lincoln temperature yesterday

Maximum temperature yesterday: 88 °F (at 2:54 PM)
Minimum temperature yesterday: 62 °F (at 3:54 AM)
Average temperature yesterday: 76 °F

Past Weeks' High & Low Weather Summary

 TemperatureHumidityPressure
High95 °F (Jun 24, 4:54 PM)97% (Jun 15, 4:54 AM)30.16 "Hg (Jun 15, 4:54 AM)
Low54 °F (Jun 16, 5:54 AM)31% (Jun 28, 11:54 AM)29.63 "Hg (Jun 22, 7:54 AM)
Average75 °F69%29.95 "Hg
* Reported Jun 15 2:54 AM — Jun 30 2:54 AM, Lincoln, Weather by CustomWeather, © 2015

Note: Actual official high and low records may vary slightly from our data, if they occured in-between our weather recording intervals... More about our weather records

Advertising

Lincoln weather history for previous 24 hours

 ConditionsComfort  
Time TempWeatherWind HumidityBarometerVisibility
2:54 AM
Tue, Jun 30
64 °FFog.No wind90%29.91 "Hg6 mi
1:54 AM67 °FFog.No wind87%29.92 "Hg6 mi
12:54 AM68 °FFog.No wind87%29.92 "Hg6 mi
11:54 PM
Mon, Jun 29
73 °FClear.3 mph74%29.91 "Hg6 mi
10:54 PM72 °FPassing clouds.No wind76%29.92 "Hg7 mi
9:54 PM74 °FSunny.3 mph71%29.91 "Hg7 mi
8:54 PM80 °FSunny.5 mph56%29.89 "Hg5 mi
7:54 PM81 °FSunny.8 mph54%29.89 "Hg6 mi
6:54 PM87 °FSunny.8 mph37%29.89 "Hg5 mi
5:54 PM88 °FSunny.7 mph36%29.89 "Hg5 mi
4:54 PM88 °FSunny.7 mph38%29.90 "Hg5 mi
3:54 PM88 °FScattered clouds.10 mph36%29.92 "Hg6 mi
2:54 PM88 °FSunny.10 mph36%29.93 "Hg9 mi
1:54 PM87 °FPassing clouds.7 mph37%29.93 "Hg9 mi
12:54 PM86 °FPassing clouds.13 mph40%29.94 "Hg8 mi
11:54 AM84 °FSunny.12 mph43%29.94 "Hg8 mi
10:54 AM82 °FSunny.10 mph49%29.94 "Hg8 mi
9:54 AM79 °FSunny.9 mph54%29.94 "Hg9 mi
8:54 AM73 °FSunny.8 mph62%29.95 "Hg9 mi
7:54 AM69 °FSunny.7 mph70%29.94 "Hg8 mi
6:54 AM65 °FClear.No wind81%29.93 "Hg7 mi
5:54 AM64 °FClear.3 mph84%29.92 "Hg9 mi
4:54 AM62 °FClear.No wind86%29.92 "Hg8 mi
Weather by CustomWeather, © 2015

See weather overviewHow to use our weather pages